Simultaneous Nadir Overpasses (SNOs) Predictions

Prediction of SNOs between FY3D and NOAA-19 Satellite Orbit:

Table of predicted SNOs for the next 14.0 days since TLE Epoch: 4/20/2024
Index Date (FY3D) Time (FY3D) Lat,Lon (FY3D) SZA (FY3D ) Date (NOAA-19) Time (NOAA-19) Lat,Lon (NOAA-19) SZA (NOAA-19 ) Distance(km) Time Diff (sec)
1 04/30/2024 21:05:37 75.89,-137.77 60.69 04/30/2024 21:04:26 75.89,-139.15 60.70 37.39 71
2 04/30/2024 21:56:26 -76.09, 28.84 119.12 04/30/2024 21:55:25 -76.08, 28.75 119.14 3.05 61
3 04/30/2024 22:47:13 76.13,-163.97 60.91 04/30/2024 22:46:19 76.12,-163.81 60.90 4.30 54
4 04/30/2024 23:37:57 -76.10, 3.43 119.14 04/30/2024 23:37:22 -76.13, 3.45 119.11 2.78 35
5 05/01/2024 00:28:44 76.13, 170.63 60.89 05/01/2024 00:28:17 76.13, 170.72 60.89 2.65 27
6 05/01/2024 01:19:28 -76.11, -21.97 119.15 05/01/2024 01:19:20 -76.13, -22.02 119.12 2.92 8
7 05/01/2024 02:10:15 76.14, 145.22 60.88 05/01/2024 02:10:15 76.13, 145.25 60.87 1.32 0
8 05/01/2024 03:01:00 -76.16, -47.54 119.12 05/01/2024 03:01:18 -76.14, -47.49 119.14 2.89 18
9 05/01/2024 03:51:46 76.15, 119.82 60.87 05/01/2024 03:52:13 76.14, 119.78 60.85 1.60 27
10 05/01/2024 04:42:31 -76.17, -72.94 119.13 05/01/2024 04:43:16 -76.14, -72.96 119.16 2.81 45
11 05/01/2024 05:33:17 76.16, 94.41 60.85 05/01/2024 05:34:11 76.14, 94.31 60.84 3.09 54
12 05/01/2024 06:24:02 -76.18, -98.35 119.14 05/01/2024 06:25:13 -76.19, -98.26 119.13 2.98 71
13 05/01/2024 07:14:54 76.43, 68.01 61.12 05/01/2024 07:16:04 76.37, 69.68 61.04 44.21 70



Historial Predications of SNOs between FY3D and NOAA-19
